Location: Frydek-Mistek
(49.6830°N, 18.3330°E)
Time: 06:58:08
(UTC+02:00)

ISS - Visible Passes

Search period start: 18 May 2021 00:00
Search period end: 28 May 2021 00:00
Orbit: 417 x 422 km, 51.6° (Epoch: 18 May)

Date Brightness Start Highest point End Pass type
(mag) Time Alt. Az. Time Alt. Az. Time Alt. Az.
18 May -3.2 01:20:22 10° WNW 01:22:53 47° WNW 01:22:53 47° WNW visible
18 May -3.7 21:19:08 10° SW 21:22:26 55° SSE 21:25:45 10° ENE visible
18 May -3.3 22:55:55 10° W 22:59:16 63° N 23:02:37 10° ENE visible
19 May -3.7 00:32:54 10° WNW 00:36:16 76° NNE 00:36:28 73° NE visible
19 May -3.5 22:08:23 10° W 22:11:45 71° NNW 22:15:08 10° ENE visible
19 May -3.4 23:45:25 10° WNW 23:48:46 66° N 23:50:16 30° E visible
20 May -1.6 01:22:17 10° WNW 01:23:12 17° W 01:23:12 17° W visible
20 May -3.7 21:20:53 10° WSW 21:24:16 84° NNW 21:27:39 10° ENE visible
20 May -3.3 22:57:55 10° WNW 23:01:15 60° N 23:04:10 13° E visible
21 May -2.9 00:34:47 10° WNW 00:37:06 39° W 00:37:06 39° W visible
21 May -3.2 22:10:23 10° W 22:13:43 59° N 22:17:03 10° E visible
21 May -3.9 23:47:18 10° WNW 23:50:41 87° SSW 23:51:03 69° ESE visible
22 May -3.2 21:22:51 10° W 21:26:12 62° N 21:29:33 10° ENE visible
22 May -3.7 22:59:49 10° WNW 23:03:12 77° NNE 23:05:02 25° E visible
23 May -1.7 00:36:46 10° W 00:37:58 19° W 00:37:58 19° W visible
23 May -3.4 22:12:19 10° WNW 22:15:41 66° N 22:19:02 10° E visible
23 May -3.2 23:49:12 10° WNW 23:51:59 43° WSW 23:51:59 43° WSW visible
24 May -3.2 21:24:48 10° WNW 21:28:09 60° N 21:31:30 10° E visible
24 May -3.8 23:01:41 10° WNW 23:05:02 66° SSW 23:06:01 41° SE visible
25 May -3.8 22:14:11 10° WNW 22:17:33 86° SSW 22:20:04 17° ESE visible
25 May -1.9 23:51:21 10° W 23:53:00 19° WSW 23:53:00 19° WSW visible
26 May -3.6 21:26:41 10° WNW 21:30:04 77° NNE 21:33:26 10° E visible
26 May -2.9 23:03:39 10° W 23:06:43 32° SSW 23:07:05 31° SSW visible
27 May -3.3 22:16:03 10° WNW 22:19:19 47° SSW 22:21:12 21° SE visible
